Comanche, TX

4:23 PM CDT on September 26, 2016 (GMT -0500)
Comanche

Weather History for KMKN - February, 2014

Change the Weather History Date:

Saturday, February 15, 2014

  Actual Average (KSEP) Record (KSEP)
Temperature  
Mean Temperature 56 °F -  
Max Temperature 75 °F 63 °F 88 °F (1943)
Min Temperature 37 °F 39 °F 20 °F (1958)
Degree Days  
Heating Degree Days 9    
Growing Degree Days 6 (Base 50)    
Moisture  
Dew Point 29 °F    
Average Humidity 36    
Maximum Humidity 60    
Minimum Humidity 19    
Precipitation  
Precipitation 0.00 in - - ()
Sea Level Pressure  
Sea Level Pressure 30.06 in    
Wind  
Wind Speed 6 mph (South)    
Max Wind Speed 22 mph    
Max Gust Speed 26 mph    
Visibility 10 miles    
Events      
Averages and records for this station are not official NWS values.
T = Trace of Precipitation, MM = Missing Value Source: NWS Daily Summary

Daily Weather History Graph

Daily Weather History Graph

Search for Another Location

Airport or City:

Trip Planner

Search our weather history database for the weather conditions in past years. The results will help you decide how hot, cold, wet, or windy it might be!

Date:

Astronomy

Feb. 15, 2014 Rise Set
Actual Time 7:16 AM CST 6:20 PM CST
Civil Twilight 6:51 AM CST 6:45 PM CST
Nautical Twilight 6:22 AM CST 7:14 PM CST
Astronomical Twilight 5:54 AM CST 7:43 PM CST
Moon 7:15 PM CST (2/15) 7:21 AM CST (2/15)
Length of Visible Light 11h 54m
Length of Day
11h 04m
Waxing Gibbous, 99% of the Moon is Illuminated
Feb 15
Waxing Gibbous
Feb 22
Last Quarter
Mar 1
New
Mar 8
First Quarter
Mar 16
Full

Hourly Weather History & Observations

Time (CST) Temp. Windchill Dew Point Humidity Pressure Visibility Wind Dir Wind Speed Gust Speed Precip Events Conditions
12:15 AM 51.3 °F - 21.2 °F 31% 30.10 in 10.0 mi Calm Calm - N/A   Clear
12:35 AM 51.3 °F - 21.0 °F 31% 30.10 in 10.0 mi Calm Calm - N/A   Clear
12:55 AM 50.5 °F - 20.8 °F 31% 30.09 in 10.0 mi Calm Calm - N/A   Clear
1:15 AM 50.4 °F - 20.7 °F 31% 30.10 in 10.0 mi Calm Calm - N/A   Clear
1:35 AM 50.4 °F - 20.8 °F 31% 30.10 in 10.0 mi Calm Calm - N/A   Clear
1:55 AM 50.0 °F - 20.8 °F 32% 30.12 in 10.0 mi Calm Calm - N/A   Clear
2:15 AM 49.3 °F - 21.2 °F 33% 30.12 in 10.0 mi Calm Calm - N/A   Clear
2:35 AM 46.2 °F 45.0 °F 22.8 °F 40% 30.13 in 10.0 mi SSW 3.5 mph - N/A   Clear
2:55 AM 46.4 °F 44.3 °F 23.0 °F 40% 30.12 in 10.0 mi SW 4.6 mph - N/A   Clear
3:15 AM 47.3 °F - 21.9 °F 37% 30.12 in 10.0 mi South 4.6 mph - N/A   Clear
3:35 AM 44.8 °F 41.6 °F 22.8 °F 42% 30.10 in 10.0 mi SSE 5.8 mph - N/A   Clear
3:55 AM 45.5 °F 42.5 °F 22.6 °F 41% 30.10 in 10.0 mi SE 5.8 mph - N/A   Clear
4:15 AM 45.3 °F 42.3 °F 22.6 °F 41% 30.10 in 10.0 mi East 5.8 mph - N/A   Clear
4:35 AM 38.8 °F 36.5 °F 24.1 °F 55% 30.10 in 10.0 mi East 3.5 mph - N/A   Clear
4:55 AM 39.0 °F 36.8 °F 24.4 °F 56% 30.11 in 10.0 mi South 3.5 mph - N/A   Clear
5:15 AM 39.6 °F 37.4 °F 24.8 °F 56% 30.12 in 10.0 mi South 3.5 mph - N/A   Clear
5:35 AM 39.7 °F 36.5 °F 24.6 °F 55% 30.12 in 10.0 mi South 4.6 mph - N/A   Clear
5:55 AM 37.8 °F 33.3 °F 24.8 °F 60% 30.12 in 10.0 mi South 5.8 mph - N/A   Clear
6:15 AM 40.6 °F 37.5 °F 24.6 °F 53% 30.12 in 10.0 mi South 4.6 mph - N/A   Clear
6:35 AM 41.9 °F 40.0 °F 24.3 °F 50% 30.13 in 10.0 mi SSE 3.5 mph - N/A   Clear
6:55 AM 40.3 °F - 24.3 °F 53% 30.12 in 10.0 mi Calm Calm - N/A   Clear
7:15 AM 40.3 °F 37.1 °F 24.4 °F 53% 30.13 in 10.0 mi SSW 4.6 mph - N/A   Clear
7:35 AM 39.4 °F 35.2 °F 25.2 °F 57% 30.12 in 10.0 mi South 5.8 mph - N/A   Clear
7:55 AM 40.1 °F 36.1 °F 25.7 °F 56% 30.12 in 10.0 mi South 5.8 mph - N/A   Clear
8:15 AM 42.4 °F 39.6 °F 28.2 °F 57% 30.12 in 10.0 mi South 4.6 mph - N/A   Clear
8:35 AM 45.1 °F 42.8 °F 28.0 °F 51% 30.13 in 10.0 mi South 4.6 mph - N/A   Clear
8:55 AM 48.2 °F - 27.0 °F 44% 30.14 in 10.0 mi SSE 5.8 mph - N/A   Clear
9:15 AM 48.4 °F - 27.3 °F 44% 30.14 in 10.0 mi South 6.9 mph - N/A   Clear
9:35 AM 50.4 °F - 27.1 °F 41% 30.14 in 10.0 mi SSE 9.2 mph - N/A   Clear
9:55 AM 53.1 °F - 26.8 °F 36% 30.14 in 10.0 mi South 10.4 mph - N/A   Clear
10:15 AM 56.3 °F - 27.0 °F 32% 30.14 in 10.0 mi SSE 11.5 mph 17.3 mph N/A   Clear
10:35 AM 58.1 °F - 25.7 °F 29% 30.13 in 10.0 mi South 17.3 mph - N/A   Clear
10:55 AM 59.7 °F - 26.2 °F 28% 30.12 in 10.0 mi South 11.5 mph 20.7 mph N/A   Clear
11:15 AM 60.8 °F - 26.4 °F 27% 30.11 in 10.0 mi SSE 16.1 mph 21.9 mph N/A   Clear
11:35 AM 62.1 °F - 27.1 °F 27% 30.10 in 10.0 mi SSE 13.8 mph 21.9 mph N/A   Clear
11:55 AM 63.3 °F - 27.0 °F 25% 30.09 in 10.0 mi South 12.7 mph - N/A   Clear
12:15 PM 64.2 °F - 28.2 °F 26% 30.08 in 10.0 mi SSE 12.7 mph - N/A   Clear
12:35 PM 67.1 °F - 26.6 °F 22% 30.07 in 10.0 mi South 16.1 mph 25.3 mph N/A   Clear
12:55 PM 67.6 °F - 27.1 °F 22% 30.07 in 10.0 mi SSW 19.6 mph 26.5 mph N/A   Clear
1:15 PM 68.2 °F - 28.2 °F 22% 30.06 in 10.0 mi South 18.4 mph 25.3 mph N/A   Clear
1:35 PM 68.5 °F - 28.2 °F 22% 30.04 in 10.0 mi South 17.3 mph 24.2 mph N/A   Clear
1:55 PM 70.3 °F - 29.1 °F 22% 30.03 in 10.0 mi SSW 12.7 mph 23.0 mph N/A   Clear
2:15 PM 71.2 °F - 28.9 °F 21% 30.01 in 10.0 mi South 19.6 mph 25.3 mph N/A   Clear
2:35 PM 71.8 °F - 29.8 °F 21% 30.00 in 10.0 mi SSW 18.4 mph 26.5 mph N/A   Clear
2:55 PM 73.2 °F - 30.6 °F 21% 29.98 in 10.0 mi SSW 21.9 mph 26.5 mph N/A   Clear
3:15 PM 73.9 °F - 30.9 °F 21% 29.97 in 10.0 mi SSW 16.1 mph 24.2 mph N/A   Clear
3:35 PM 74.7 °F - 30.7 °F 20% 29.97 in 10.0 mi SW 15.0 mph 23.0 mph N/A   Clear
3:55 PM 75.7 °F - 30.9 °F 19% 29.97 in 10.0 mi SW 13.8 mph 19.6 mph N/A   Clear
4:15 PM 75.7 °F - 31.1 °F 19% 29.97 in 10.0 mi SW 9.2 mph 19.6 mph N/A   Clear
4:35 PM 75.9 °F - 31.6 °F 20% 29.97 in 10.0 mi South 10.4 mph 17.3 mph N/A   Clear
4:55 PM 75.7 °F - 31.8 °F 20% 29.96 in 10.0 mi SSW 11.5 mph 16.1 mph N/A   Clear
5:15 PM 75.6 °F - 32.2 °F 20% 29.97 in 10.0 mi South 9.2 mph - N/A   Clear
5:35 PM 74.5 °F - 32.5 °F 22% 29.96 in 10.0 mi SSE 11.5 mph - N/A   Clear
5:55 PM 72.0 °F - 33.3 °F 24% 29.97 in 10.0 mi SSE 6.9 mph - N/A   Clear
6:15 PM 69.6 °F - 33.8 °F 27% 29.97 in 10.0 mi SSE 6.9 mph - N/A   Clear
6:35 PM 67.1 °F - 33.3 °F 29% 29.97 in 10.0 mi SSE 8.1 mph - N/A   Clear
6:55 PM 65.5 °F - 33.1 °F 30% 29.98 in 10.0 mi SSE 8.1 mph - N/A   Clear
7:15 PM 64.0 °F - 32.9 °F 31% 29.98 in 10.0 mi SSE 8.1 mph - N/A   Clear
7:35 PM 62.2 °F - 32.9 °F 33% 29.99 in 10.0 mi SSE 6.9 mph - N/A   Clear
7:55 PM 60.3 °F - 32.9 °F 36% 29.99 in 10.0 mi South 8.1 mph - N/A   Clear
8:15 PM 59.9 °F - 32.7 °F 36% 30.00 in 10.0 mi SSE 5.8 mph - N/A   Clear
8:35 PM 59.2 °F - 33.4 °F 38% 30.00 in 10.0 mi South 9.2 mph - N/A   Clear
8:55 PM 59.9 °F - 34.3 °F 38% 30.00 in 10.0 mi South 10.4 mph - N/A   Clear
9:15 PM 58.3 °F - 35.4 °F 42% 30.00 in 10.0 mi South 8.1 mph - N/A   Clear
9:35 PM 58.1 °F - 36.3 °F 44% 30.00 in 10.0 mi South 9.2 mph - N/A   Clear
9:55 PM 56.7 °F - 37.4 °F 49% 30.00 in 10.0 mi South 9.2 mph - N/A   Clear
10:15 PM 57.2 °F - 38.3 °F 49% 30.00 in 10.0 mi South 9.2 mph - N/A   Clear
10:35 PM 59.4 °F - 39.2 °F 47% 30.00 in 10.0 mi South 11.5 mph - N/A   Clear
10:55 PM 59.5 °F - 39.4 °F 47% 29.99 in 10.0 mi South 12.7 mph - N/A   Clear
11:15 PM 59.9 °F - 39.6 °F 47% 30.00 in 10.0 mi South 12.7 mph - N/A   Clear
11:35 PM 59.9 °F - 39.7 °F 47% 30.00 in 10.0 mi SSW 11.5 mph - N/A   Clear
11:55 PM 58.6 °F - 39.7 °F 49% 30.00 in 10.0 mi South 9.2 mph - N/A   Clear